User: anonymous   Login
Location: Bowman Observatory
(41.0326°N, 73.6210°W)
Time: 21:36:55
(UTC-04:00)
Language:

Cosmos 2297 - Orbit

View from above orbital plane
View from above orbital plane
View from above satellite
View from above satellite

Ground track
Ground track

The orbit data is extracted from the following two-line orbital elements,

1 23404U 94077A   14294.20192178  .00000393  00000-0  23380-3 0  8982
2 23404 071.0143 163.3910 0015464 188.9616 309.5147 14.13402069 27012
Epoch (UTC): 21 October 2014 04:50:46
Eccentricity: 0.0015464
inclination: 71.0143°
perigee height: 836 km
apogee height: 859 km
right ascension of ascending node: 163.3910°
argument of perigee: 188.9616°
revolutions per day: 14.13402069
mean anomaly at epoch: 309.5147°
orbit number at epoch: 2701

The dashed part of the orbit path shows where the satellite is in the earth's shadow,  

DLR